IGO590W VAAH-VOGO

Flight info

Callsign IGO590W
Flight time N/A
Altitude 31000
Route BVR1A/23 BVR R458 BBB W15 UDULO UDUL2A
Aircraft A21N/M-SDE2E3FGHIRWXY/LB1

Departure

Time 2026-04-23 17:16
Airport Sardar Vallabh Patel International Airport (VAAH)

Arrival

Time N/A
Airport Goa Dabolim International Airport (VOGO)
Time Latitude Longitude Altitude Speed Heading
2026-04-23 17:10 23.08453 72.64013 197 ft 1 kts 45°
2026-04-23 17:10 23.08490 72.64053 201 ft 15 kts 45°
2026-04-23 17:11 23.08581 72.64153 204 ft 6 kts 45°
2026-04-23 17:11 23.08599 72.64216 203 ft 2 kts 110°
2026-04-23 17:11 23.08587 72.64236 200 ft 0 kts 134°
2026-04-23 17:14 23.08575 72.64249 200 ft 10 kts 134°
2026-04-23 17:15 23.08524 72.64290 206 ft 7 kts 168°
2026-04-23 17:15 23.08490 72.64275 201 ft 12 kts 211°
2026-04-23 17:15 23.08413 72.64181 203 ft 55 kts 226°
2026-04-23 17:15 23.07882 72.63618 203 ft 152 kts 224°
2026-04-23 17:16 23.06980 72.62640 482 ft 201 kts 225°
2026-04-23 17:16 23.05938 72.61520 1218 ft 222 kts 226°
2026-04-23 17:16 23.04792 72.60342 2254 ft 230 kts 226°
2026-04-23 17:16 23.03634 72.59145 3477 ft 230 kts 226°
2026-04-23 17:17 23.02472 72.57912 4542 ft 239 kts 226°
2026-04-23 17:17 23.01261 72.56605 5561 ft 248 kts 225°
2026-04-23 17:17 23.00433 72.55709 6360 ft 248 kts 225°
2026-04-23 17:17 22.98786 72.53935 7913 ft 251 kts 225°
2026-04-23 17:18 22.96274 72.51250 10208 ft 257 kts 225°
2026-04-23 17:18 22.94988 72.49873 11104 ft 267 kts 225°
2026-04-23 17:18 22.93556 72.48535 12049 ft 275 kts 212°
2026-04-23 17:19 22.91805 72.47667 12981 ft 283 kts 195°
2026-04-23 17:19 22.89841 72.47199 13572 ft 290 kts 192°
2026-04-23 17:19 22.87856 72.46766 13746 ft 291 kts 192°